[[{"header":{"parameterUnit":"m.s-1","parameterCategory":1,"la1":30.2991,"la2":30.254,"lo1":-89.0895,"lo2":-89.0444,"dy":0.0017,"dx":0.0017,"nx":28,"ny":28,"refTime":"2023-09-18T03:00:00:Z","depth":0,"parameterNumber":2,"parameterNumberName":"U-component_of_WINDS"},"data":[0,0,0,0,0,0,0,0,0,0,0,0,0,0,0,0,0,0,0,0,0,0,0,0,0,0,0,0,0,0,0,0,0,0,0,0,0,0,0,0,0,0,0,0,0,0,0,0,0,0,0,0,0,0,0,0,0,0,-2.4791,-2.4791,0,-2.477,-2.477,-2.477,-2.4675,-2.4672,-2.467,-2.4668,-2.4649,-2.4651,-2.4652,0,0,0,0,0,0,0,0,0,0,0,0,0,-2.4753,-2.4754,-2.4791,-2.4791,-2.4791,-2.477,-2.477,-2.477,-2.4675,-2.4672,-2.4669,-2.4667,-2.4648,-2.465,-2.4652,0,0,0,0,0,0,0,0,0,0,0,0,0,-2.4755,-2.4755,-2.4791,-2.4741,-2.4736,-2.4771,-2.477,-2.477,-2.4675,-2.4672,-2.4669,-2.4666,-2.4648,-2.465,-2.4652,-2.4735,0,0,-2.466,-2.4661,0,0,0,0,0,0,0,0,-2.4755,-2.4756,-2.4749,-2.4744,-2.4739,-2.4722,-2.475,-2.4758,-2.4676,-2.4699,-2.4668,-2.4664,-2.4676,-2.4676,-2.4679,-2.4734,-2.4733,-2.466,-2.4661,-2.4662,-2.4663,0,0,0,0,0,0,0,-2.4755,-2.4757,-2.4783,-2.4749,-2.4743,-2.4721,-2.4717,-2.4751,-2.4707,-2.4696,-2.4689,-2.4688,-2.4673,-2.4677,-2.4678,-2.4733,-2.466,-2.4662,-2.4663,-2.4664,-2.4855,-2.4859,0,0,0,0,0,0,-2.4761,-2.4757,-2.4784,-2.4782,-2.4739,-2.4724,-2.472,-2.4731,-2.4706,-2.4699,-2.4691,-2.4684,-2.4675,-2.4676,-2.4677,-2.4772,-2.4662,-2.4665,-2.4666,-2.4852,-2.4856,-2.486,0,0,0,0,0,0,-2.4761,-2.4765,-2.4785,-2.4768,-2.4769,-2.4728,-2.4741,-2.4732,-2.4736,-2.4702,-2.4694,-2.4703,-2.4672,-2.4674,-2.4721,-2.477,-2.4666,-2.4668,-2.4847,-2.4853,-2.4858,-2.4963,0,0,0,0,0,0,-2.476,-2.4765,-2.4795,-2.4769,-2.477,-2.4828,-2.4744,-2.4734,-2.474,-2.4731,-2.4711,-2.4705,-2.467,-2.4718,-2.4724,-2.4772,-2.467,-2.4843,-2.485,-2.4856,-2.4955,-2.4971,-2.4985,0,0,0,0,0,-2.4759,-2.4825,-2.4797,-2.48,-2.4806,-2.4831,-2.4831,-2.4789,-2.4745,-2.4775,-2.4753,-2.4705,-2.4765,-2.4724,-2.4729,-2.4779,-2.4839,-2.4848,-2.4856,-2.4948,-2.4968,-2.4985,0,0,0,0,0,0,-2.4857,-2.4821,-2.4789,-2.4848,-2.4843,-2.4815,-2.4851,-2.4811,-2.4819,-2.481,-2.4758,-2.4755,-2.481,-2.4799,-2.4755,-2.4858,-2.4794,-2.4804,-2.4862,-2.4881,-2.4896,-2.4897,-2.4672,0,0,0,0,0,-2.4886,-2.4908,-2.4875,-2.4931,-2.493,-2.4892,-2.4901,-2.4869,-2.4862,-2.486,-2.4841,-2.4837,-2.4855,-2.4868,-2.4882,-2.4954,-2.4949,-2.4991,-2.5006,-2.5018,-2.5027,-2.5066,-2.5084,-2.4887,-2.4887,-2.4887,0,0,-2.4945,-2.4928,-2.4945,-2.495,-2.4943,-2.4968,-2.489,-2.492,-2.4939,-2.4864,-2.4907,-2.4895,-2.4887,-2.4947,-2.4973,-2.494,-2.5081,-2.5029,-2.5039,-2.5041,-2.5076,-2.5095,-2.5111,-2.4892,-2.4891,-2.4891,0,0,-2.5065,-2.5054,-2.5099,-2.5094,-2.5084,-2.5058,-2.507,-2.5048,-2.5036,-2.5079,-2.5024,-2.5047,-2.5078,-2.5075,-2.5078,-2.5201,-2.5158,-2.5208,-2.5286,-2.5325,-2.534,-2.5354,-2.5398,-2.5415,-2.5217,-2.5217,-2.5217,0,-2.5139,-2.5174,-2.5128,-2.5162,-2.5167,-2.5101,-2.5148,-2.5145,-2.5141,-2.5146,-2.511,-2.5149,-2.5139,-2.5198,-2.5229,-2.5233,-2.5246,-2.5208,-2.5342,-2.5355,-2.5367,-2.5408,-2.5425,-2.5223,-2.5222,-2.5222,-2.5221,0,-2.5267,-2.5292,-2.5331,-2.5328,-2.5337,-2.5377,-2.5339,-2.5355,-2.5323,-2.5302,-2.5348,-2.5335,-2.5346,-2.5358,-2.5327,-2.5414,-2.5394,-2.5351,-2.5285,-2.5392,-2.5431,-2.5446,-2.5232,-2.5229,-2.5228,-2.5226,0,0,-2.5445,-2.5418,-2.5433,-2.5431,-2.5417,-2.5436,-2.5476,-2.5486,-2.5501,-2.5501,-2.5533,-2.5562,-2.5523,-2.5526,-2.5495,-2.5529,-2.5629,-2.5482,-2.5481,-2.5509,-2.5724,-2.5756,-2.5776,-2.5601,-2.5604,-2.5606,-2.5725,0,-2.5559,-2.5622,-2.5583,-2.5652,-2.5676,-2.5616,-2.565,-2.5646,-2.5629,-2.5648,-2.5628,-2.565,-2.5596,-2.5598,-2.5629,-2.561,-2.5671,-2.5601,-2.5631,-2.5632,-2.5633,-2.5795,-2.5829,-2.5941,-2.574,-2.5742,-2.5744,0,-2.57,-2.5707,-2.5778,-2.5761,-2.577,-2.5801,-2.5808,-2.5827,-2.5822,-2.5807,-2.5813,-2.5775,-2.5813,-2.575,-2.5803,-2.5757,-2.5767,-2.576,-2.5764,-2.5764,-2.5694,-2.58,-2.5976,-2.5993,-2.5767,-2.5765,-2.5764,0,-2.5823,-2.585,-2.5896,-2.5897,-2.5878,-2.5902,-2.5896,-2.5887,-2.5897,-2.5905,-2.5911,-2.5924,-2.593,-2.5942,-2.5909,-2.5866,-2.5967,-2.5901,-2.5956,-2.5957,-2.5979,-2.5978,-2.6159,-2.5988,-2.5987,-2.5987,-2.5987,0,-2.5954,-2.6,-2.5951,-2.598,-2.6031,-2.5988,-2.604,-2.6027,-2.6021,-2.6047,-2.5997,-2.6023,-2.5978,-2.6001,-2.5975,-2.6024,-2.6028,-2.6017,-2.601,-2.6021,-2.6023,-2.6026,-2.6017,-2.5991,-2.599,-2.599,-2.5989,0,-2.6098,-2.6067,-2.6114,-2.6093,-2.609,-2.6128,-2.6111,-2.6137,-2.6118,-2.6152,-2.6158,-2.6127,-2.6151,-2.6119,-2.614,-2.6124,-2.619,-2.6171,-2.6191,-2.6185,-2.6243,-2.6238,-2.6432,-2.6456,-2.627,-2.6272,-2.6273,0,-2.6183,-2.6217,-2.62,-2.6214,-2.6211,-2.6234,-2.6244,-2.6204,-2.6217,-2.6216,-2.6243,-2.6263,-2.6276,-2.6318,-2.6298,-2.6315,-2.6295,-2.6363,-2.6297,-2.6308,-2.6296,-2.6294,-2.6298,-2.6375,-2.6378,-2.6379,-2.6381,0,-2.6337,-2.6321,-2.6336,-2.6348,-2.6361,-2.6369,-2.6372,-2.6387,-2.6345,-2.6363,-2.6386,-2.6397,-2.6419,-2.644,-2.6452,-2.6447,-2.6408,-2.6402,-2.6416,-2.6427,-2.6437,-2.6432,-2.6227,-2.6397,-2.6396,-2.6394,-2.6393,-2.6393,-2.6453,-2.6481,-2.6475,-2.6495,-2.6494,-2.6499,-2.6523,-2.6508,-2.6526,-2.654,-2.6517,-2.6547,-2.6545,-2.6556,-2.6556,-2.6581,-2.6551,-2.6571,-2.6576,-2.6581,-2.659,-2.6435,-2.6583,-2.6582,-2.6582,-2.6581,-2.6581,0,-2.6604,-2.6598,-2.6617,-2.6624,-2.664,-2.6603,-2.6606,-2.6622,-2.6649,-2.665,-2.6665,-2.6694,-2.6714,-2.6698,-2.6715,-2.6738,-2.6721,-2.6744,-2.6742,-2.6741,-2.6615,-2.6601,-2.6758,-2.6758,-2.6758,-2.6758,-2.6758,-2.6758,-2.6684,-2.673,-2.6714,-2.6761,-2.6754,-2.6783,-2.6788,-2.6794,-2.6794,-2.6828,-2.6845,-2.6834,-2.6828,-2.6846,-2.6864,-2.6859,-2.6867,-2.6897,-2.6886,-2.6767,-2.675,-2.6733,-2.672,-2.6899,-2.69,-2.701,-2.7011,-2.7012]},{"header":{"parameterUnit":"m.s-1","parameterCategory":1,"la1":30.2991,"la2":30.254,"lo1":-89.0895,"lo2":-89.0444,"dy":0.0017,"dx":0.0017,"nx":28,"ny":28,"refTime":"2023-09-18T03:00:00:Z","depth":0,"parameterNumber":3,"parameterNumberName":"V-component_of_WINDS"},"data":[0,0,0,0,0,0,0,0,0,0,0,0,0,0,0,0,0,0,0,0,0,0,0,0,0,0,0,0,0,0,0,0,0,0,0,0,0,0,0,0,0,0,0,0,0,0,0,0,0,0,0,0,0,0,0,0,0,0,3.1136,3.1135,0,3.1063,3.1062,3.1061,3.1071,3.1072,3.1074,3.1075,3.0985,3.0981,3.0978,0,0,0,0,0,0,0,0,0,0,0,0,0,3.1273,3.127,3.1136,3.1135,3.1134,3.1063,3.1062,3.1061,3.1071,3.1072,3.1074,3.1075,3.0986,3.0982,3.0978,0,0,0,0,0,0,0,0,0,0,0,0,0,3.1208,3.127,3.1136,3.1131,3.113,3.1063,3.1062,3.1061,3.1071,3.1072,3.1074,3.1076,3.0987,3.0982,3.0977,3.0906,0,0,3.0961,3.0958,0,0,0,0,0,0,0,0,3.1211,3.1202,3.1133,3.1131,3.113,3.1078,3.1077,3.1008,3.107,3.1093,3.1075,3.1077,3.1013,3.1006,3.0988,3.0902,3.0898,3.096,3.0957,3.0955,3.0953,0,0,0,0,0,0,0,3.1216,3.1206,3.1107,3.1132,3.113,3.1128,3.1121,3.1064,3.1043,3.1091,3.1091,3.1083,3.1013,3.0993,3.0986,3.0897,3.096,3.0956,3.0952,3.095,3.075,3.0748,0,0,0,0,0,0,3.1224,3.1209,3.1109,3.1105,3.1177,3.1125,3.1117,3.1093,3.1044,3.1038,3.1082,3.1084,3.1001,3.0992,3.0983,3.0896,3.0955,3.095,3.0947,3.0752,3.0749,3.0747,0,0,0,0,0,0,3.1227,3.1215,3.1112,3.1157,3.1144,3.112,3.1093,3.109,3.107,3.1037,3.1032,3.1066,3.1002,3.099,3.0926,3.0893,3.0947,3.0942,3.0754,3.0751,3.0748,3.0723,0,0,0,0,0,0,3.123,3.1216,3.1191,3.1157,3.1142,3.106,3.1091,3.1087,3.1063,3.1065,3.1021,3.1015,3.1003,3.0934,3.0921,3.0887,3.0938,3.0757,3.0753,3.0749,3.0727,3.072,3.0714,0,0,0,0,0,3.1235,3.1184,3.119,3.1177,3.1111,3.1059,3.1049,3.104,3.106,3.1033,3.1013,3.1017,3.09,3.0928,3.0913,3.0876,3.0759,3.0754,3.0749,3.073,3.0721,3.0714,0,0,0,0,0,0,3.1208,3.1179,3.1185,3.1122,3.1094,3.1061,3.1026,3.1031,3.0992,3.0996,3.0982,3.0972,3.0907,3.0886,3.0917,3.0806,3.0832,3.0824,3.0822,3.0813,3.0807,3.0811,3.0934,0,0,0,0,0,3.1197,3.116,3.1135,3.1081,3.1067,3.105,3.1026,3.1023,3.099,3.0976,3.0951,3.0915,3.0871,3.0841,3.0798,3.0725,3.0714,3.0693,3.0686,3.0681,3.0673,3.0632,3.0622,3.0731,3.0731,3.0731,0,0,3.1168,3.1148,3.1125,3.1075,3.1053,3.1012,3.1039,3.0994,3.0962,3.0968,3.0907,3.0888,3.0847,3.0779,3.0747,3.0758,3.0641,3.0675,3.0671,3.0666,3.0626,3.0616,3.0606,3.0728,3.0728,3.0729,0,0,3.1097,3.1079,3.1033,3.1011,3.0979,3.0968,3.0957,3.0925,3.0913,3.0854,3.0857,3.0818,3.0742,3.0713,3.0688,3.061,3.0612,3.0597,3.056,3.052,3.0512,3.0504,3.0474,3.0464,3.0589,3.0589,3.0589,0,3.1064,3.1008,3.1006,3.0963,3.094,3.095,3.0901,3.0878,3.0831,3.0814,3.0829,3.0736,3.0709,3.0634,3.0616,3.0596,3.058,3.06,3.0514,3.0506,3.0499,3.047,3.0459,3.0588,3.0588,3.0588,3.0588,0,3.0969,3.0929,3.0895,3.0856,3.083,3.0783,3.0772,3.0745,3.0745,3.0731,3.067,3.0639,3.0591,3.0573,3.057,3.0497,3.0506,3.0518,3.0543,3.0487,3.0459,3.0448,3.0585,3.0586,3.0586,3.0587,0,0,3.0873,3.0839,3.0826,3.0809,3.0776,3.0743,3.0697,3.0655,3.0631,3.0599,3.0558,3.0495,3.0508,3.048,3.0474,3.0439,3.0378,3.0455,3.0454,3.044,3.0294,3.0283,3.0271,3.0381,3.0379,3.0377,3.0297,0,3.0797,3.072,3.072,3.0647,3.0609,3.062,3.0579,3.0553,3.054,3.0503,3.0487,3.0443,3.0463,3.0447,3.0414,3.0393,3.0348,3.0399,3.0337,3.0335,3.0345,3.0257,3.0245,3.0171,3.0286,3.0285,3.0283,0,3.0697,3.0668,3.0593,3.0568,3.0552,3.0516,3.0478,3.0445,3.0414,3.0407,3.0379,3.0379,3.0328,3.0358,3.0286,3.0321,3.0296,3.0282,3.0279,3.027,3.0304,3.0243,3.0147,3.0135,3.0267,3.0268,3.0269,0,3.0633,3.0575,3.0523,3.0508,3.0478,3.0452,3.0437,3.0409,3.0385,3.0351,3.0334,3.0293,3.0269,3.0235,3.0223,3.0247,3.0151,3.018,3.014,3.014,3.0115,3.0116,3.0011,3.0105,3.0105,3.0105,3.0105,0,3.0546,3.0499,3.0494,3.0462,3.0409,3.0409,3.0355,3.0341,3.0317,3.028,3.0286,3.0249,3.0237,3.0197,3.0187,3.0128,3.0117,3.0107,3.0104,3.0105,3.0106,3.0086,3.009,3.0102,3.0103,3.0103,3.0104,0,3.0463,3.0459,3.0403,3.0381,3.0374,3.0336,3.0315,3.0282,3.0273,3.0225,3.0214,3.0196,3.015,3.0137,3.0079,3.0073,3.0003,3.0006,3.0015,3.0013,2.9973,2.9976,2.9849,2.9831,2.9939,2.9938,2.9937,0,3.0406,3.0372,3.0348,3.0326,3.0312,3.0276,3.0253,3.025,3.0225,3.019,3.016,3.0117,3.0082,3.0008,2.9987,2.9943,2.9943,2.9902,2.9936,2.9939,2.994,2.9941,2.9937,2.9894,2.9893,2.9892,2.9891,0,3.0306,3.0307,3.0275,3.0244,3.0218,3.0191,3.0166,3.0146,3.014,3.0111,3.0068,3.0041,2.9986,2.9941,2.9899,2.9878,2.9882,2.9882,2.987,2.9868,2.9874,2.9868,2.9994,2.9883,2.9884,2.9885,2.9885,2.9885,3.0233,3.0203,3.0182,3.0147,3.013,3.0107,3.0076,3.0065,3.003,2.9989,2.9989,2.9941,2.9911,2.9855,2.9834,2.9793,2.9805,2.9787,2.9782,2.9778,2.9774,2.9884,2.9785,2.9786,2.9786,2.9786,2.9786,0,3.013,3.0119,3.0088,3.0055,3.0027,3.0041,3.0014,2.9988,2.9948,2.9923,2.9891,2.984,2.9798,2.9776,2.9733,2.9705,2.9706,2.9693,2.9693,2.9689,2.9767,2.9781,2.9694,2.9694,2.9694,2.9694,2.9694,2.9694,3.0074,3.0024,3.0023,2.9963,2.9951,2.9908,2.9892,2.987,2.985,2.9796,2.9763,2.9751,2.9727,2.9683,2.9643,2.9638,2.962,2.9606,2.9601,2.9674,2.9683,2.9692,2.9705,2.9603,2.9603,2.9526,2.9525,2.9525]}]]